GW3834 Weather Reports


time (UTC)temp
F
wind
direction
speed
knots
gust
knots
rain 1hr
in
rain 24hr
in
rain mn
in
humidity
%
barometer
mb
20260504034528 52 328 4.3 8.7 0.00 0.00 0.00 51 1011.8
20260504033028 52 338 0.0 0.9 0.00 0.00 0.00 49 1011.2
20260504031528 54 318 1.7 2.6 0.00 0.00 0.00 47 1011.0
20260504030034 55 4 2.6 6.1 0.00 0.00 0.00 45 1010.7
20260504024528 55 1 4.3 9.6 0.00 0.00 0.00 45 1010.6
20260504023026 56 13 4.3 8.7 0.00 0.00 0.00 44 1010.4
20260504021526 59 14 9.6 13.9 0.00 0.00 0.00 40 1010.4
20260504020034 61 3 9.6 17.4 0.00 0.00 0.00 38 1010.4
20260504014525 63 354 10.4 18.2 0.00 0.00 0.00 37 1010.2
20260504013030 65 310 7.8 13.9 0.00 0.00 0.00 34 1010.1
20260504011522 67 325 10.4 14.8 0.00 0.00 0.00 29 1010.1
20260504010022 68 330 9.6 14.8 0.00 0.00 0.00 27 1010.0
20260504004535 70 333 9.6 17.4 0.00 0.00 0.00 26 1010.0
20260504003018 71 300 9.6 17.4 0.00 0.00 0.00 24 1010.0
20260504001529 70 329 12.2 17.4 0.00 0.00 0.00 24 1010.1
20260504000016 70 295 12.2 20.9 0.00 0.00 0.00 24 1010.3
20260503234517 70 300 12.2 16.5 0.00 0.00 0.00 23 1010.4
20260503233013 71 290 12.2 20.9 0.00 0.00 0.00 23 1010.4
20260503231510 71 304 13.0 18.2 0.00 0.00 0.00 22 1010.5
20260503230008 71 292 10.4 20.0 0.00 0.00 0.00 24 1010.6
20260503224505 71 300 10.4 18.2 0.00 0.00 0.00 25 1010.7
20260503223009 70 318 10.4 20.0 0.00 0.00 0.00 23 1010.8
20260503221503 70 307 11.3 19.1 0.00 0.00 0.00 23 1010.9
20260503220003 71 305 11.3 18.2 0.00 0.00 0.00 24 1011.0
20260503214600 70 284 12.2 18.2 0.00 0.00 0.00 24 1011.2
20260503213058 70 300 13.9 19.1 0.00 0.00 0.00 22 1011.3
20260503211556 70 313 15.6 20.0 0.00 0.00 0.00 22 1011.7
20260503210053 69 295 10.4 19.1 0.00 0.00 0.00 24 1011.8
20260503204552 69 304 11.3 21.7 0.00 0.00 0.00 25 1011.7
20260503203050 69 308 10.4 17.4 0.00 0.00 0.00 26 1012.0
20260503201551 69 293 11.3 18.2 0.00 0.00 0.00 23 1012.2
20260503200047 69 285 13.9 20.9 0.00 0.00 0.00 26 1012.3
20260503194553 68 288 13.0 19.1 0.00 0.00 0.00 26 1012.4
20260503193041 68 279 12.2 20.9 0.00 0.00 0.00 26 1012.7
20260503191539 67 304 11.3 19.1 0.00 0.00 0.00 25 1013.1
20260503190045 66 305 11.3 16.5 0.00 0.00 0.00 27 1013.2
20260503184535 66 298 10.4 15.6 0.00 0.00 0.00 27 1013.4
20260503183038 65 295 9.6 13.9 0.00 0.00 0.00 27 1013.6
20260503181549 65 304 11.3 13.9 0.00 0.00 0.00 29 1013.7
20260503180041 65 273 7.8 12.2 0.00 0.00 0.00 31 1013.8
20260503174524 63 259 7.8 13.0 0.00 0.00 0.00 33 1014.1
20260503173023 64 294 7.8 15.6 0.00 0.00 0.00 34 1014.2
20260503171525 63 293 7.8 13.9 0.00 0.00 0.00 33 1014.4
20260503120142 52 252 5.2 8.7 0.00 0.00 0.00 56 1014.4
20260503081511 39 13 0.0 6.1 0.00 0.00 0.00 83 1016.0
20260503071501 38 82 1.7 2.6 0.00 0.00 0.00 83 1016.4
20260503054546 41 239 0.0 0.0 0.00 0.00 0.00 77 1016.7
20260503053047 42 239 0.0 1.7 0.00 0.00 0.00 75 1016.9
20260503051545 43 356 0.0 1.7 0.00 0.00 0.00 73 1017.0
20260503050045 43 62 1.7 2.6 0.00 0.00 0.00 74 1017.1
20260503044600 44 39 1.7 1.7 0.00 0.00 0.00 75 1017.1
20260503043045 46 231 0.0 1.7 0.00 0.00 0.00 67 1017.1
20260503041602 49 79 2.6 4.3 0.00 0.00 0.00 62 1017.0
20260503040051 51 98 0.9 1.7 0.00 0.00 0.00 61 1016.9